Probability
3 1 0 0 0 0 0 0 0 0 0 0 0 0 0 0 0 0 0 0 0 0 0 0 0 0 0 0 0 0 0 0 0 0 0 0 0 0 0 0 0 0 0
2 1 0 0 0 0 0 0 0 0 0 0 0 0 0 0 0 0 0 0 0 0 0 0 0 0 0 0 0 0 0 0 0 0 0 0 0 0 0 0 0 0 0
1 1 0 0 0 0 0 0 0 0 0 0 0 0 0 0 0 0 0 0 0 0 0 0 0 0 0 0 0 0 0 0 0 0 0 0 0 0 0 0 0 0 0
0 0 0 0 0 0 0 0 0 0 0 0 0 0 0 0 0 0 0 0 0 0 0 0 0 0 0 0 0 0 0 0 0 0 0 0 0 0 0 0 0 0 0
0 0 0 0 0 0 0 0 0 0 0 0 0 0 0 0 0 0 0 0 0 0 0 0 0 0 0 0 0 0 0 0 0 0 0 0 0 0 0 0 0 0 0
0 0 0 0 0 0 0 0 0 0 0 0 0 0 0 0 0 0 0 0 0 0 0 0 0 0 0 0 0 0 0 0 0 0 0 0 0 0 0 0 0 0 0
0 0 0 0 0 0 0 0 0 0 0 0 0 0 0 0 0 0 0 0 0 0 0 0 0 0 0 0 0 0 0 0 0 0 0 0 0 0 0 0 0 0 0
0 0 0 0 0 0 0 0 0 0 0 0 0 0 0 0 0 0 0 0 0 0 0 0 0 0 0 0 0 0 0 0 0 0 0 0 0 0 0 0 0 0 0
0 0 0 0 0 0 0 0 0 0 0 0 0 0 0 0 0 0 0 0 0 0 0 0 0 0 0 0 0 0 0 0 0 0 0 0 0 0 0 0 0 0 0
0 0 0 0 0 0 0 0 0 0 0 0 0 0 0 0 0 0 0 0 0 0 0 0 0 0 0 0 0 0 0 0 0 0 0 0 0 0 0 0 0 0 0
0 0 0 0 0 0 0 0 0 0 0 0 0 0 0 0 0 0 0 0 0 0 0 0 0 0 0 0 0 0 0 0 0 0 0 0 0 0 0 0 0 0 0
0 0 0 0 0 0 0 0 0 0 0 0 0 0 0 0 0 0 0 0 0 0 0 0 0 0 0 0 0 0 0 0 0 0 0 0 0 0 0 0 0 0 0
0 0 0 0 0 0 0 0 0 0 0 0 0 0 0 0 0 0 0 0 0 0 0 0 0 0 0 0 0 0 0 0 0 0 0 0 0 0 0 0 0 0 0
0 0 0 0 0 0 0 0 0 0 0 0 0 0 0 0 0 0 0 0 0 0 0 0 0 0 0 0 0 0 0 0 0 0 0 0 0 0 0 0 0 0 0
0 0 0 0 0 0 0 0 0 0 0 0 0 0 0 0 0 0 0 0 0 0 0 0 0 0 0 0 0 0 0 0 0 0 0 0 0 0 0 0 0 0 0
0 0 0 0 0 0 0 0 0 0 0 0 0 0 0 0 0 0 0 0 0 0 0 0 0 0 0 0 0 0 0 0 0 0 0 0 0 0 0 0 0 0 0
0 0 0 0 0 0 0 0 0 0 0 0 0 0 0 0 0 0 0 0 0 0 0 0 0 0 0 0 0 0 0 0 0 0 0 0 0 0 0 0 0 0 0
0 0 0 0 0 0 0 0 0 0 0 0 0 0 0 0 0 0 0 0 0 0 0 0 0 0 0 0 0 0 0 0 0 0 0 0 0 0 0 0 0 0 0
0 0 0 0 0 0 0 0 0 0 0 0 0 0 0 0 0 0 0 0 0 0 0 0 0 0 0 0 0 0 0 0 0 0 0 0 0 0 0 0 0 0 0
0 0 0 0 0 0 0 0 0 0 0 0 0 0 0 0 0 0 0 0 0 0 0 0 0 0 0 0 0 0 0 0 0 0 0 0 0 0 0 0 0 0 0
0 0 0 0 0 0 0 0 0 0 0 0 0 0 0 0 0 0 0 0 0 0 0 0 0 0 0 0 0 0 0 0 0 0 0 0 0 0 0 0 0 0 0
0 0 0 0 0 0 0 0 0 0 0 0 0 0 0 0 0 0 0 0 0 0 0 0 0 0 0 0 0 0 0 0 0 0 0 0 0 0 0 0 0 0 0
0 0 0 0 0 0 0 0 0 0 0 0 0 0 0 0 0 0 0 0 0 0 0 0 0 0 0 0 0 0 0 0 0 0 0 0 0 0 0 0 0 0 0
0 0 0 0 0 0 0 0 0 0 0 0 0 0 0 0 0 0 0 0 0 0 0 0 0 0 0 0 0 0 0 0 0 0 0 0 0 0 0 0 0 0 0
0 0 0 0 0 0 0 0 0 0 0 0 0 0 0 0 0 0 0 0 0 0 0 0 0 0 0 0 0 0 0 0 0 0 0 0 0 0 0 0 0 0 0
0 0 0 0 0 0 0 0 0 0 0 0 0 0 0 0 0 0 0 0 0 0 0 0 0 0 0 0 0 0 0 0 0 0 0 0 0 0 0 0 0 0 0
Wind_Speed
13 12 12 11 11 11 10 10 8 7 6 6 5 4 3 3 3 2 2 2 2 3 3 4 4 4 3 4 4 5 5 6 8 8 6 6 8 8 8 8 9 9 9
12 12 12 11 11 11 10 9 7 6 5 5 4 3 3 4 3 3 4 4 4 5 5 5 5 5 5 4 4 5 5 6 7 10 8 8 8 9 8 9 10 10 8
12 12 11 11 10 10 8 7 6 5 4 4 4 3 3 3 3 4 5 5 5 5 5 5 5 5 5 4 5 5 5 6 6 8 10 7 7 8 9 10 10 8 10
12 12 11 10 9 8 8 6 6 5 5 5 4 4 4 8 10 10 9 7 6 5 5 5 5 5 5 5 5 5 6 7 7 8 9 8 8 8 8 7 8 7 9
11 11 10 9 9 8 7 7 6 5 5 4 4 3 6 9 9 10 9 8 8 7 6 5 6 8 8 5 6 6 7 7 8 9 9 10 9 8 8 7 9 9 9
10 10 10 9 8 7 6 5 5 5 5 4 5 7 8 8 8 9 8 8 8 8 6 6 7 7 6 7 9 10 11 10 10 9 10 11 12 10 8 8 8 9 7
10 9 8 7 7 5 4 4 4 4 4 4 5 6 7 7 6 6 8 8 9 7 6 6 7 8 7 5 8 12 12 14 14 11 11 12 12 10 10 10 9 10 10
8 7 6 5 5 3 4 4 4 3 3 3 3 4 4 5 3 3 9 8 8 6 5 6 6 6 5 5 9 11 10 10 11 10 9 10 10 10 9 10 10 10 9
7 6 4 3 3 3 4 3 3 2 2 1 2 2 2 4 3 2 7 8 6 6 7 7 6 6 2 6 9 11 12 10 12 13 13 13 15 17 13 7 7 8 8
5 4 3 2 3 4 4 3 2 2 2 2 2 1 1 2 5 2 5 7 7 7 7 6 6 4 6 9 9 10 12 12 12 13 13 12 10 9 8 6 6 7 6
5 4 3 3 3 4 3 2 2 2 2 2 2 1 1 1 5 5 4 5 7 8 8 7 5 5 10 13 11 10 12 13 12 11 10 8 6 4 4 4 4 4 5
4 4 4 2 2 4 2 1 1 2 2 2 2 2 1 1 2 3 6 7 8 8 8 7 7 13 16 16 12 12 15 13 8 8 7 5 5 4 4 5 5 4 4
4 3 2 2 2 1 0 0 1 1 2 2 2 2 2 2 1 2 5 9 10 8 7 11 14 16 15 11 10 13 11 7 6 6 5 4 4 4 4 4 5 5 5
3 2 2 2 2 1 1 1 1 2 4 4 4 4 4 3 5 7 7 7 8 8 8 11 14 13 11 9 9 7 5 5 5 5 5 3 3 3 3 3 4 5 5
1 1 2 2 2 2 2 1 3 5 4 4 5 6 6 6 6 6 6 7 7 8 9 8 7 7 6 6 6 6 5 5 5 4 4 4 3 3 3 3 3 4 4
0 2 2 1 2 2 1 3 6 5 7 7 5 4 4 5 7 9 9 10 12 11 8 6 7 7 7 7 7 7 6 5 4 3 3 3 3 3 3 3 3 4 4
1 2 4 3 2 1 1 1 4 4 3 3 1 2 5 7 8 9 11 13 12 10 5 5 6 6 7 7 7 6 6 5 3 2 3 3 3 2 3 3 4 4 4
2 1 3 3 3 2 2 2 2 3 4 3 3 3 5 7 7 9 11 10 6 5 4 5 6 6 7 7 7 6 5 4 3 2 2 2 2 2 2 2 3 4 3
3 1 2 4 3 2 2 3 4 5 4 3 2 1 3 5 5 7 8 5 5 5 5 5 6 7 7 7 6 5 4 4 4 3 2 1 1 1 2 2 1 2 2
2 1 2 4 3 2 3 4 5 5 4 4 3 4 3 3 4 5 4 5 5 5 5 6 7 7 6 6 5 5 4 4 5 4 3 2 2 1 2 2 1 1 1
1 5 4 2 4 5 5 5 5 4 4 3 3 3 3 3 4 5 4 5 5 5 6 6 7 7 6 5 6 6 7 6 6 6 5 4 3 3 3 2 2 1 1
5 3 3 5 6 5 4 4 4 4 3 3 2 2 1 2 3 4 5 5 5 5 5 6 6 6 6 6 6 6 7 7 8 8 7 6 5 4 4 4 4 3 2
3 3 4 5 4 3 1 3 3 3 4 4 4 4 3 4 4 4 5 5 5 5 5 5 5 6 7 7 6 6 8 8 8 9 8 7 6 5 4 4 4 4 5
4 4 5 4 3 3 4 4 4 4 5 5 5 5 4 4 4 5 5 5 5 6 5 5 6 10 12 9 7 8 8 8 9 8 10 7 5 5 5 5 5 6 5
5 4 4 4 4 4 4 4 5 5 5 5 5 5 5 4 4 4 5 5 6 6 7 7 7 9 13 14 13 11 12 12 9 9 8 6 7 7 6 6 5 6 7
6 4 4 4 4 4 4 5 5 5 6 6 6 5 4 4 4 5 5 5 5 5 7 7 10 13 15 12 14 14 13 13 13 12 8 6 6 8 8 5 7 6 7
Wind_Direction
85 88 92 94 95 96 98 100 101 102 104 104 106 107 108 96 66 40 19 25 14 12 349 0 360 347 336 338 324 314 317 322 313 311 311 317 322 311 304 299 296 289 287
91 91 90 91 93 94 95 96 98 100 101 102 100 91 83 78 57 22 6 19 13 10 4 358 348 339 343 325 328 325 320 314 306 308 310 307 304 302 297 297 299 298 300
99 97 94 93 92 94 95 96 98 98 93 87 78 69 53 52 51 33 24 19 16 4 355 344 334 325 317 324 325 312 311 313 312 305 303 300 298 297 298 296 297 296 298
99 97 94 92 93 92 91 86 81 76 73 64 53 45 42 46 42 30 19 2 353 343 332 321 313 313 315 322 312 305 315 317 307 301 299 300 298 295 294 299 301 298 299
96 95 92 90 87 84 80 73 66 55 57 49 43 41 64 65 43 32 3 350 343 327 317 315 313 313 305 296 297 310 309 300 301 299 299 300 299 302 302 301 299 301 294
93 93 93 91 87 83 79 74 66 55 42 32 37 52 60 69 66 43 9 340 322 312 317 322 314 304 323 306 291 293 288 288 293 294 294 293 295 298 300 301 301 302 298
90 91 93 94 92 87 88 81 69 56 48 43 47 66 85 88 65 28 353 321 303 302 314 318 316 318 326 333 322 309 299 293 283 280 284 287 292 297 300 302 300 299 297
97 97 99 99 97 93 85 73 65 52 40 42 59 67 104 115 93 359 333 314 303 312 320 309 307 311 338 344 320 309 299 298 295 292 283 288 294 297 297 295 295 293 288
103 101 96 95 96 91 80 69 61 49 24 18 76 61 106 146 188 308 337 320 320 330 318 310 310 305 343 329 315 307 306 304 303 303 300 293 289 287 285 289 292 294 298
114 113 108 92 82 79 68 54 46 15 9 18 42 12 359 153 176 235 327 325 330 326 314 311 312 306 318 314 312 309 304 305 312 314 310 306 297 293 294 282 288 297 301
133 134 128 108 109 100 82 56 13 2 360 336 332 331 327 107 175 214 273 315 329 323 316 318 319 314 312 308 303 292 286 296 304 301 300 300 305 312 318 313 303 297 304
141 127 110 95 82 101 102 72 358 330 312 303 306 326 345 103 131 206 254 281 295 305 308 315 319 319 312 306 300 290 292 297 292 292 299 310 317 323 325 324 322 315 297
118 110 108 101 79 74 358 303 317 326 333 336 346 360 2 24 82 262 279 288 293 297 308 316 313 306 305 301 298 302 302 294 296 306 316 320 319 322 332 337 333 327 319
128 143 174 165 176 183 283 327 14 13 10 1 7 2 4 21 26 4 344 335 335 330 335 322 313 303 301 298 302 305 300 302 314 317 320 318 323 339 357 349 339 337 334
150 203 229 207 193 221 209 47 36 64 59 26 14 2 5 5 8 339 327 328 328 321 321 309 310 321 329 332 330 327 325 329 334 333 330 336 344 357 358 348 339 337 342
333 277 269 235 234 264 175 130 70 104 114 94 67 22 21 21 337 331 326 318 312 310 313 310 319 326 330 329 327 326 327 330 332 334 342 352 2 6 0 351 351 351 350
333 325 317 326 318 329 327 159 150 130 122 120 94 345 335 330 329 330 328 324 314 311 307 312 321 325 323 321 320 320 319 321 327 347 6 7 12 12 3 356 355 351 353
317 345 316 323 322 334 346 9 94 139 150 158 199 257 306 319 323 327 330 329 326 329 327 326 325 321 319 317 318 320 323 334 349 2 18 21 17 6 357 347 351 355 356
315 359 319 304 314 356 9 36 52 67 84 102 125 167 300 306 302 318 329 335 333 333 332 327 320 315 313 314 317 324 334 352 359 0 14 12 350 336 336 330 340 346 348
199 160 295 313 6 50 38 52 59 61 65 65 57 33 6 348 346 343 340 332 330 329 328 323 318 313 315 322 332 342 358 4 1 360 355 348 335 322 325 330 334 344 355
85 154 210 300 46 46 45 55 59 57 57 62 63 53 356 342 341 340 336 334 332 327 323 321 318 322 334 341 348 356 7 9 3 355 353 349 350 347 338 338 338 354 20
345 74 81 65 64 48 30 52 63 62 59 58 68 86 2 340 355 348 344 340 332 323 320 321 327 337 350 355 359 5 10 7 357 349 346 346 345 346 348 356 358 358 7
328 55 88 90 99 125 74 61 61 63 58 53 52 48 34 19 12 357 348 339 331 328 326 329 340 2 10 3 6 18 13 357 339 332 333 335 343 351 350 355 8 17 18
44 48 62 75 71 75 75 69 61 60 61 59 56 50 40 28 12 356 349 341 335 333 340 355 10 14 18 17 10 15 10 346 329 324 324 325 346 0 355 358 11 19 20
62 61 60 59 65 75 73 69 66 60 59 61 59 52 43 28 13 358 351 343 340 349 6 18 21 16 12 18 15 4 348 341 342 337 326 336 12 11 2 7 18 24 29
62 63 69 70 68 73 76 75 70 66 65 63 62 54 38 28 18 5 356 351 352 3 12 17 24 27 15 8 3 357 349 347 348 346 340 353 19 15 4 13 29 31 34